Weather History for Atka, AK

Change the Weather History Date:

Tuesday, March 19, 2013

  Actual Average (PADK) Record (PADK)
Temperature  
Mean Temperature 38 °F -  
Max Temperature 39 °F 38 °F 44 °F (1967)
Min Temperature 37 °F 29 °F 12 °F (1985)
Degree Days  
Heating Degree Days 27    
Moisture  
Dew Point 35 °F    
Average Humidity 89    
Maximum Humidity 100    
Minimum Humidity 75    
Precipitation  
Precipitation 0.00 in - - ()
Sea Level Pressure  
Sea Level Pressure 30.24 in    
Wind  
Wind Speed 26 mph (East)    
Max Wind Speed 30 mph    
Max Gust Speed 36 mph    
Averages and records for this station are not official NWS values.
T = Trace of Precipitation, MM = Missing Value Source: NWS Daily Summary

Daily Weather History Graph

Daily Weather History Graph

Search for Another Location

Airport:

Trip Planner

Search our weather history database for the weather conditions in past years. The results will help you decide how hot, cold, wet, or windy it might be!

Date:

Astronomy

Mar. 19, 2013 Rise Set
Actual Time 8:40 AM HADT 8:49 PM HADT
Civil Twilight 8:06 AM HADT 9:23 PM HADT
Nautical Twilight 7:26 AM HADT 10:03 PM HADT
Astronomical Twilight 6:45 AM HADT 10:45 PM HADT
Moon 1:02 PM HADT (3/19) 4:28 AM HADT (3/19)
Length of Visible Light 13h 16m
Length of Day
12h 08m
First Quarter, 51% of the Moon is Illuminated
Mar 19
First Quarter
Mar 27
Full
Apr 2
Last Quarter
Apr 10
New
Apr 18
First Quarter

Hourly Weather History & Observations

Time (HADT) Temp. Windchill Dew Point Humidity Pressure Visibility Wind Dir Wind Speed Gust Speed Precip Events Conditions
12:16 AM 39.2 °F 28.3 °F 37.4 °F 93% 30.20 in - East 25.3 mph 35.7 mph N/A   Overcast
12:36 AM 39.2 °F 27.6 °F 37.4 °F 93% 30.20 in - East 28.8 mph 33.4 mph N/A   Overcast
12:56 AM 39.2 °F 28.3 °F 37.4 °F 93% 30.21 in - East 25.3 mph 32.2 mph N/A   Overcast
1:16 AM 39.2 °F 28.0 °F 37.4 °F 93% 30.21 in - East 26.5 mph 35.7 mph N/A   Overcast
1:36 AM 39.2 °F 28.3 °F 37.4 °F 93% 30.21 in - East 25.3 mph 33.4 mph N/A   Overcast
1:56 AM 39.2 °F 28.0 °F 37.4 °F 93% 30.21 in - East 26.5 mph 31.1 mph N/A   Unknown
2:16 AM 39.2 °F 28.0 °F 37.4 °F 93% 30.22 in - East 26.5 mph 31.1 mph N/A   Unknown
2:36 AM 39.2 °F 28.0 °F 37.4 °F 93% 30.22 in - East 26.5 mph 34.5 mph N/A   Unknown
2:56 AM 39.2 °F 28.0 °F 37.4 °F 93% 30.22 in - East 26.5 mph 33.4 mph N/A   Overcast
3:16 AM 39.2 °F 28.0 °F 37.4 °F 93% 30.22 in - East 26.5 mph 32.2 mph N/A   Unknown
3:36 AM 37.4 °F 25.4 °F 35.6 °F 93% 30.22 in - East 27.6 mph 34.5 mph N/A   Overcast
3:56 AM 37.4 °F 25.6 °F 35.6 °F 93% 30.23 in - East 26.5 mph 31.1 mph N/A   Overcast
4:16 AM 37.4 °F 26.1 °F 35.6 °F 93% 30.23 in - East 24.2 mph 31.1 mph N/A   Overcast
4:36 AM 37.4 °F 25.6 °F 35.6 °F 93% 30.23 in - East 26.5 mph 31.1 mph N/A   Unknown
4:56 AM 37.4 °F 25.9 °F 37.4 °F 100% 30.22 in - East 25.3 mph 32.2 mph N/A   Unknown
5:16 AM 37.4 °F 25.9 °F 35.6 °F 93% 30.22 in - East 25.3 mph 33.4 mph N/A   Unknown
5:36 AM 37.4 °F 25.4 °F 35.6 °F 93% 30.22 in - East 27.6 mph 33.4 mph N/A   Unknown
5:56 AM 37.4 °F 25.9 °F 35.6 °F 93% 30.22 in - East 25.3 mph 32.2 mph N/A   Unknown
6:16 AM 37.4 °F 25.6 °F 35.6 °F 93% 30.21 in - East 26.5 mph 31.1 mph N/A   Overcast
6:36 AM 37.4 °F 25.6 °F 35.6 °F 93% 30.21 in - East 26.5 mph 32.2 mph N/A   Overcast
6:56 AM 37.4 °F 25.9 °F 35.6 °F 93% 30.21 in - East 25.3 mph 32.2 mph N/A   Overcast
7:16 AM 37.4 °F 25.6 °F 35.6 °F 93% 30.22 in - East 26.5 mph 33.4 mph N/A   Overcast
7:36 AM 37.4 °F 25.6 °F 35.6 °F 93% 30.22 in - East 26.5 mph 34.5 mph N/A   Overcast
7:56 AM 37.4 °F 25.6 °F 35.6 °F 93% 30.23 in - East 26.5 mph 33.4 mph N/A   Overcast
8:16 AM 37.4 °F 25.6 °F 35.6 °F 93% 30.23 in - East 26.5 mph 29.9 mph N/A   Unknown
8:36 AM 37.4 °F 26.1 °F 35.6 °F 93% 30.24 in - East 24.2 mph 31.1 mph N/A   Overcast
8:56 AM 37.4 °F 26.4 °F 35.6 °F 93% 30.24 in - East 23.0 mph 31.1 mph N/A   Overcast
9:16 AM 37.4 °F 25.6 °F 35.6 °F 93% 30.24 in - East 26.5 mph 32.2 mph N/A   Overcast
9:36 AM 37.4 °F 26.4 °F 35.6 °F 93% 30.25 in - East 23.0 mph 29.9 mph N/A   Unknown
9:56 AM 37.4 °F 25.4 °F 35.6 °F 93% 30.25 in - East 27.6 mph 33.4 mph N/A   Unknown
10:16 AM 37.4 °F 25.9 °F 35.6 °F 93% 30.26 in - East 25.3 mph 32.2 mph N/A   Unknown
10:36 AM 37.4 °F 25.6 °F 35.6 °F 93% 30.26 in - East 26.5 mph 33.4 mph N/A   Unknown
10:56 AM 37.4 °F 25.6 °F 35.6 °F 93% 30.27 in - East 26.5 mph 31.1 mph N/A   Unknown
11:16 AM 37.4 °F 25.6 °F 35.6 °F 93% 30.27 in - East 26.5 mph 33.4 mph N/A   Unknown
11:36 AM 37.4 °F 25.0 °F 35.6 °F 93% 30.27 in - East 29.9 mph 34.5 mph N/A   Unknown
11:56 AM 37.4 °F 26.1 °F 35.6 °F 93% 30.27 in - East 24.2 mph 32.2 mph N/A   Overcast
12:16 PM 37.4 °F 25.9 °F 35.6 °F 93% 30.27 in - East 25.3 mph 34.5 mph N/A   Overcast
12:36 PM 37.4 °F 25.9 °F 35.6 °F 93% 30.28 in - East 25.3 mph 32.2 mph N/A   Overcast
12:56 PM 37.4 °F 25.9 °F 35.6 °F 93% 30.28 in - East 25.3 mph 33.4 mph N/A   Overcast
1:16 PM 37.4 °F 25.9 °F 33.8 °F 87% 30.28 in - East 25.3 mph 31.1 mph N/A   Overcast
1:36 PM 37.4 °F 25.2 °F 35.6 °F 93% 30.28 in - East 28.8 mph 34.5 mph N/A   Unknown
1:56 PM 37.4 °F 25.9 °F 35.6 °F 93% 30.27 in - East 25.3 mph 29.9 mph N/A   Unknown
2:16 PM 37.4 °F 26.9 °F 35.6 °F 93% 30.27 in - East 20.7 mph 29.9 mph N/A   Unknown
2:36 PM 37.4 °F 26.1 °F 35.6 °F 93% 30.26 in - East 24.2 mph 32.2 mph N/A   Unknown
2:56 PM 37.4 °F 26.4 °F 35.6 °F 93% 30.26 in - East 23.0 mph 31.1 mph N/A   Unknown
3:16 PM 37.4 °F 26.1 °F 35.6 °F 93% 30.25 in - East 24.2 mph 31.1 mph N/A   Unknown
3:36 PM 37.4 °F 25.6 °F 35.6 °F 93% 30.25 in - East 26.5 mph 33.4 mph N/A   Unknown
3:56 PM 37.4 °F 25.6 °F 35.6 °F 93% 30.25 in - East 26.5 mph 31.1 mph N/A   Unknown
4:16 PM 37.4 °F 25.6 °F 33.8 °F 87% 30.24 in - East 26.5 mph 32.2 mph N/A   Unknown
4:36 PM 37.4 °F 26.1 °F 33.8 °F 87% 30.24 in - East 24.2 mph 31.1 mph N/A   Overcast
4:56 PM 37.4 °F 25.9 °F 33.8 °F 87% 30.25 in - East 25.3 mph 33.4 mph N/A   Overcast
5:16 PM 37.4 °F 26.4 °F 35.6 °F 93% 30.24 in - East 23.0 mph 32.2 mph N/A   Overcast
5:36 PM 37.4 °F 25.4 °F 33.8 °F 87% 30.24 in - East 27.6 mph 32.2 mph N/A   Unknown
5:56 PM 37.4 °F 25.4 °F 35.6 °F 93% 30.23 in - East 27.6 mph - N/A   Unknown
6:16 PM 37.4 °F 26.6 °F 35.6 °F 93% 30.24 in - East 21.9 mph 29.9 mph N/A   Unknown
6:36 PM 37.4 °F 26.4 °F 35.6 °F 93% 30.23 in - East 23.0 mph 31.1 mph N/A   Unknown
6:56 PM 37.4 °F 25.9 °F 33.8 °F 87% 30.23 in - East 25.3 mph 33.4 mph N/A   Unknown
7:16 PM 37.4 °F 26.1 °F 33.8 °F 87% 30.23 in - East 24.2 mph 32.2 mph N/A   Unknown
7:36 PM 37.4 °F 25.9 °F 33.8 °F 87% 30.22 in - East 25.3 mph 29.9 mph N/A   Overcast
7:56 PM 37.4 °F 26.9 °F 33.8 °F 87% 30.23 in - East 20.7 mph 31.1 mph N/A   Unknown
8:16 PM 37.4 °F 26.4 °F 32.0 °F 81% 30.23 in - East 23.0 mph 31.1 mph N/A   Overcast
8:36 PM 37.4 °F 26.1 °F 30.2 °F 75% 30.24 in - East 24.2 mph 27.6 mph N/A   Overcast
8:56 PM 37.4 °F 26.4 °F 30.2 °F 75% 30.24 in - East 23.0 mph 31.1 mph N/A   Overcast
9:16 PM 37.4 °F 25.9 °F 30.2 °F 75% 30.24 in - East 25.3 mph 29.9 mph N/A   Overcast
9:36 PM 37.4 °F 26.9 °F 30.2 °F 75% 30.24 in - East 20.7 mph 28.8 mph N/A   Overcast
9:56 PM 37.4 °F 25.6 °F 30.2 °F 75% 30.24 in - East 26.5 mph 32.2 mph N/A   Overcast
10:16 PM 37.4 °F 25.9 °F 30.2 °F 75% 30.23 in - East 25.3 mph 31.1 mph N/A   Overcast
10:36 PM 37.4 °F 26.4 °F 30.2 °F 75% 30.23 in - East 23.0 mph 28.8 mph N/A   Overcast
10:56 PM 37.4 °F 26.6 °F 30.2 °F 75% 30.23 in - East 21.9 mph - N/A   Overcast
11:16 PM 37.4 °F 26.4 °F 30.2 °F 75% 30.22 in - East 23.0 mph 29.9 mph N/A   Overcast
11:36 PM 37.4 °F 25.9 °F 30.2 °F 75% 30.22 in - East 25.3 mph 29.9 mph N/A   Overcast
11:56 PM 37.4 °F 26.6 °F 30.2 °F 75% 30.22 in - East 21.9 mph 28.8 mph N/A   Overcast